Time,TemperatureF,DewpointF,PressureIn,WindDirection,WindDirectionDegrees,WindSpeedMPH,WindSpeedGustMPH,Humidity,HourlyPrecipIn,Conditions,Clouds,dailyrainin,SoftwareType,DateUTC
2013-04-17 00:03:00,54.0,52.0,-100.00,North,2,0.0,15.0,95,0.00,,,-99.99,,2013-04-17 04:03:00,
2013-04-17 00:13:00,54.0,52.0,-100.00,WSW,241,0.0,15.0,95,0.00,,,-99.99,,2013-04-17 04:13:00,
2013-04-17 00:23:00,54.0,52.0,-100.00,WSW,251,0.0,15.0,95,0.00,,,-99.99,,2013-04-17 04:23:00,
2013-04-17 00:33:00,53.0,50.0,-100.00,WSW,251,0.0,15.0,95,0.00,,,-99.99,,2013-04-17 04:33:00,
2013-04-17 00:42:00,52.0,50.0,-100.00,SW,231,0.0,15.0,95,0.00,,,-99.99,,2013-04-17 04:42:00,
2013-04-17 00:52:00,53.0,52.0,-100.00,SSW,211,1.0,15.0,97,0.00,,,-99.99,,2013-04-17 04:52:00,
2013-04-17 01:03:00,52.0,50.0,-100.00,SSW,210,0.0,15.0,95,0.00,,,-99.99,,2013-04-17 05:03:00,
2013-04-17 01:12:00,54.0,52.0,-100.00,West,279,0.0,15.0,97,0.00,,,-99.99,,2013-04-17 05:12:00,
2013-04-17 01:22:00,51.0,48.0,-100.00,West,259,0.0,15.0,95,0.00,,,-99.99,,2013-04-17 05:22:00,
2013-04-17 01:32:00,53.0,50.0,-100.00,SW,234,1.0,15.0,97,0.00,,,-99.99,,2013-04-17 05:32:00,
2013-04-17 01:43:00,51.0,50.0,-100.00,West,261,0.0,15.0,97,0.00,,,-99.99,,2013-04-17 05:43:00,
2013-04-17 01:52:00,50.0,48.0,-100.00,SE,129,0.0,15.0,95,0.00,,,-99.99,,2013-04-17 05:52:00,
2013-04-17 02:02:00,51.0,50.0,-100.00,North,357,0.0,15.0,97,0.00,,,-99.99,,2013-04-17 06:02:00,
2013-04-17 02:12:00,52.0,50.0,-100.00,NNE,28,0.0,15.0,97,0.00,,,-99.99,,2013-04-17 06:12:00,
2013-04-17 02:22:00,52.0,50.0,-100.00,NNE,16,0.0,15.0,98,0.00,,,-99.99,,2013-04-17 06:22:00,
2013-04-17 02:32:00,51.0,48.0,-100.00,South,169,0.0,15.0,97,0.00,,,-99.99,,2013-04-17 06:32:00,
2013-04-17 02:42:00,51.0,50.0,-100.00,SW,228,0.0,15.0,97,0.00,,,-99.99,,2013-04-17 06:42:00,
2013-04-17 02:52:00,51.0,50.0,-100.00,WSW,254,0.0,15.0,97,0.00,,,-99.99,,2013-04-17 06:52:00,
2013-04-17 03:02:00,51.0,48.0,-100.00,NNE,21,0.0,15.0,98,0.00,,,-99.99,,2013-04-17 07:02:00,
2013-04-17 03:12:00,49.0,48.0,-100.00,WSW,247,0.0,15.0,97,0.00,,,-99.99,,2013-04-17 07:12:00,
2013-04-17 03:22:00,50.0,48.0,-100.00,SE,128,0.0,15.0,98,0.00,,,-99.99,,2013-04-17 07:22:00,
2013-04-17 03:32:00,51.0,50.0,-100.00,ENE,73,0.0,15.0,97,0.00,,,-99.99,,2013-04-17 07:32:00,
2013-04-17 03:42:00,51.0,50.0,-100.00,NE,46,0.0,15.0,98,0.00,,,-99.99,,2013-04-17 07:42:00,
2013-04-17 03:52:00,52.0,50.0,-100.00,NE,43,1.0,15.0,98,0.00,,,-99.99,,2013-04-17 07:52:00,
2013-04-17 04:02:00,52.0,50.0,-100.00,NNE,12,1.0,15.0,97,0.00,,,-99.99,,2013-04-17 08:02:00,
2013-04-17 04:12:00,52.0,50.0,-100.00,North,1,1.0,15.0,97,0.00,,,-99.99,,2013-04-17 08:12:00,
2013-04-17 04:22:00,51.0,48.0,-100.00,NNE,19,1.0,15.0,97,0.00,,,-99.99,,2013-04-17 08:22:00,
2013-04-17 04:32:00,50.0,48.0,-100.00,ENE,57,2.0,15.0,95,0.00,,,-99.99,,2013-04-17 08:32:00,
2013-04-17 04:42:00,53.0,52.0,-100.00,NNE,29,1.0,15.0,98,0.00,,,-99.99,,2013-04-17 08:42:00,
2013-04-17 04:52:00,53.0,52.0,-100.00,ENE,57,1.0,15.0,97,0.00,,,-99.99,,2013-04-17 08:52:00,
2013-04-17 05:02:00,50.0,48.0,-100.00,NE,56,1.0,15.0,97,0.00,,,-99.99,,2013-04-17 09:02:00,
2013-04-17 05:12:00,51.0,50.0,-100.00,NE,36,1.0,15.0,97,0.00,,,-99.99,,2013-04-17 09:12:00,
2013-04-17 05:22:00,50.0,48.0,-100.00,NE,55,1.0,15.0,97,0.00,,,-99.99,,2013-04-17 09:22:00,
2013-04-17 05:33:00,50.0,48.0,-100.00,NNE,28,1.0,15.0,97,0.00,,,-99.99,,2013-04-17 09:33:00,
2013-04-17 05:42:00,50.0,48.0,-100.00,NE,48,2.0,15.0,97,0.00,,,-99.99,,2013-04-17 09:42:00,
2013-04-17 05:52:00,50.0,48.0,-100.00,NNE,26,3.0,15.0,97,0.00,,,-99.99,,2013-04-17 09:52:00,
2013-04-17 06:03:00,51.0,48.0,-100.00,NNE,15,3.0,15.0,95,0.00,,,-99.99,,2013-04-17 10:03:00,
2013-04-17 06:12:00,51.0,48.0,-100.00,ENE,63,4.0,15.0,95,0.00,,,-99.99,,2013-04-17 10:12:00,
2013-04-17 06:23:00,52.0,50.0,-100.00,ENE,73,4.0,15.0,97,0.00,,,-99.99,,2013-04-17 10:23:00,
2013-04-17 06:32:00,51.0,48.0,-100.00,NE,38,2.0,15.0,95,0.00,,,-99.99,,2013-04-17 10:32:00,
2013-04-17 06:43:00,51.0,48.0,-100.00,NNE,25,2.0,15.0,95,0.00,,,-99.99,,2013-04-17 10:43:00,
2013-04-17 06:52:00,51.0,48.0,-100.00,NE,48,1.0,15.0,95,0.00,,,-99.99,,2013-04-17 10:52:00,
2013-04-17 07:02:00,50.0,48.0,-100.00,NE,49,1.0,15.0,95,0.00,,,-99.99,,2013-04-17 11:02:00,
2013-04-17 07:12:00,49.0,46.0,-100.00,ENE,64,1.0,1.0,95,0.00,,,-99.99,,2013-04-17 11:12:00,
2013-04-17 07:22:00,52.0,50.0,-100.00,ENE,69,1.0,1.0,97,0.00,,,-99.99,,2013-04-17 11:22:00,
2013-04-17 07:32:00,52.0,50.0,-100.00,ENE,57,1.0,1.0,95,0.00,,,-99.99,,2013-04-17 11:32:00,
2013-04-17 07:42:00,50.0,46.0,-100.00,NE,55,2.0,2.0,94,0.00,,,-99.99,,2013-04-17 11:42:00,
2013-04-17 07:52:00,50.0,46.0,-100.00,NE,55,2.0,2.0,94,0.00,,,-99.99,,2013-04-17 11:52:00,
2013-04-17 08:03:00,50.0,46.0,-100.00,ENE,77,2.0,2.0,93,0.00,,,-99.99,,2013-04-17 12:03:00,
2013-04-17 08:12:00,51.0,48.0,-100.00,NNE,24,2.0,2.0,93,0.00,,,-99.99,,2013-04-17 12:12:00,
2013-04-17 08:22:00,53.0,50.0,-100.00,NE,42,5.0,6.0,94,0.00,,,-99.99,,2013-04-17 12:22:00,
2013-04-17 08:32:00,53.0,50.0,-100.00,NE,42,5.0,6.0,93,0.00,,,-99.99,,2013-04-17 12:32:00,
2013-04-17 08:42:00,52.0,50.0,-100.00,NNE,22,4.0,6.0,93,0.00,,,-99.99,,2013-04-17 12:42:00,
2013-04-17 08:52:00,52.0,48.0,-100.00,NNE,31,4.0,6.0,91,0.00,,,-99.99,,2013-04-17 12:52:00,
2013-04-17 09:02:00,52.0,48.0,-100.00,East,79,6.0,8.0,91,0.00,,,-99.99,,2013-04-17 13:02:00,
2013-04-17 09:12:00,51.0,46.0,-100.00,NNE,15,4.0,8.0,89,0.00,,,-99.99,,2013-04-17 13:12:00,
2013-04-17 09:22:00,51.0,46.0,-100.00,ENE,66,6.0,8.0,86,0.00,,,-99.99,,2013-04-17 13:22:00,
2013-04-17 09:32:00,52.0,46.0,-100.00,NNE,29,6.0,8.0,85,0.00,,,-99.99,,2013-04-17 13:32:00,
2013-04-17 09:42:00,53.0,46.0,-100.00,NNE,19,4.0,8.0,82,0.00,,,-99.99,,2013-04-17 13:42:00,
2013-04-17 09:52:00,53.0,46.0,-100.00,NE,45,4.0,8.0,81,0.00,,,-99.99,,2013-04-17 13:52:00,
2013-04-17 10:02:00,54.0,46.0,-100.00,ENE,60,5.0,8.0,76,0.00,,,-99.99,,2013-04-17 14:02:00,
2013-04-17 10:12:00,56.0,48.0,-100.00,East,81,4.0,8.0,75,0.00,,,-99.99,,2013-04-17 14:12:00,
2013-04-17 10:22:00,55.0,45.0,-100.00,NNE,16,3.0,8.0,72,0.00,,,-99.99,,2013-04-17 14:22:00,
2013-04-17 10:32:00,57.0,46.0,-100.00,ENE,57,4.0,8.0,69,0.00,,,-99.99,,2013-04-17 14:32:00,
2013-04-17 10:42:00,56.0,43.0,-100.00,NNE,32,6.0,8.0,66,0.00,,,-99.99,,2013-04-17 14:42:00,
2013-04-17 10:52:00,57.0,45.0,-100.00,NE,55,6.0,8.0,67,0.00,,,-99.99,,2013-04-17 14:52:00,
2013-04-17 11:02:00,58.0,45.0,-100.00,NNE,24,5.0,8.0,64,0.00,,,-99.99,,2013-04-17 15:02:00,
2013-04-17 11:12:00,58.0,45.0,-100.00,NNE,31,4.0,8.0,64,0.00,,,-99.99,,2013-04-17 15:12:00,
2013-04-17 11:22:00,58.0,45.0,-100.00,NNE,28,6.0,8.0,63,0.00,,,-99.99,,2013-04-17 15:22:00,
2013-04-17 11:33:00,59.0,43.0,-100.00,NNE,26,6.0,8.0,58,0.00,,,-99.99,,2013-04-17 15:33:00,
2013-04-17 11:43:00,60.0,45.0,-100.00,NE,50,8.0,12.0,60,0.00,,,-99.99,,2013-04-17 15:43:00,
2013-04-17 11:53:00,60.0,45.0,-100.00,NNE,19,6.0,12.0,58,0.00,,,-99.99,,2013-04-17 15:53:00,
2013-04-17 12:03:00,60.0,45.0,-100.00,NNE,25,5.0,12.0,58,0.00,,,-99.99,,2013-04-17 16:03:00,
2013-04-17 12:12:00,60.0,43.0,-100.00,NNE,31,4.0,12.0,56,0.00,,,-99.99,,2013-04-17 16:12:00,
2013-04-17 12:23:00,61.0,45.0,-100.00,NNE,19,4.0,12.0,56,0.00,,,-99.99,,2013-04-17 16:23:00,
2013-04-17 12:32:00,62.0,45.0,-100.00,NE,42,6.0,12.0,53,0.00,,,-99.99,,2013-04-17 16:32:00,
2013-04-17 12:42:00,63.0,45.0,-100.00,NE,52,4.0,12.0,53,0.00,,,-99.99,,2013-04-17 16:42:00,
2013-04-17 12:52:00,63.0,45.0,-100.00,NNE,14,3.0,12.0,53,0.00,,,-99.99,,2013-04-17 16:52:00,
2013-04-17 13:02:00,63.0,45.0,-100.00,ENE,63,2.0,12.0,53,0.00,,,-99.99,,2013-04-17 17:02:00,
2013-04-17 13:12:00,63.0,45.0,-100.00,ENE,73,4.0,12.0,53,0.00,,,-99.99,,2013-04-17 17:12:00,
2013-04-17 13:22:00,66.0,46.0,-100.00,NNE,24,5.0,12.0,51,0.00,,,-99.99,,2013-04-17 17:22:00,
2013-04-17 13:33:00,64.0,45.0,-100.00,ENE,69,3.0,12.0,53,0.00,,,-99.99,,2013-04-17 17:33:00,
2013-04-17 13:42:00,65.0,46.0,-100.00,NE,39,3.0,12.0,53,0.00,,,-99.99,,2013-04-17 17:42:00,
2013-04-17 13:52:00,65.0,45.0,-100.00,NNE,15,3.0,12.0,50,0.00,,,-99.99,,2013-04-17 17:52:00,
2013-04-17 14:02:00,67.0,48.0,-100.00,NNE,25,1.0,12.0,51,0.00,,,-99.99,,2013-04-17 18:02:00,
2013-04-17 14:12:00,66.0,46.0,-100.00,NNE,12,2.0,12.0,50,0.00,,,-99.99,,2013-04-17 18:12:00,
2013-04-17 14:22:00,68.0,50.0,-100.00,NE,43,2.0,12.0,53,0.00,,,-99.99,,2013-04-17 18:22:00,
2013-04-17 14:32:00,66.0,46.0,-100.00,ESE,110,2.0,12.0,51,0.00,,,-99.99,,2013-04-17 18:32:00,
2013-04-17 14:42:00,68.0,48.0,-100.00,NE,55,2.0,12.0,51,0.00,,,-99.99,,2013-04-17 18:42:00,
2013-04-17 14:52:00,71.0,50.0,-100.00,NW,313,1.0,12.0,50,0.00,,,-99.99,,2013-04-17 18:52:00,
2013-04-17 15:02:00,69.0,48.0,-100.00,East,79,4.0,12.0,50,0.00,,,-99.99,,2013-04-17 19:02:00,
2013-04-17 15:12:00,71.0,50.0,-100.00,ESE,115,1.0,12.0,49,0.00,,,-99.99,,2013-04-17 19:12:00,
2013-04-17 15:22:00,70.0,46.0,-100.00,WSW,245,1.0,12.0,46,0.00,,,-99.99,,2013-04-17 19:22:00,
2013-04-17 15:32:00,70.0,48.0,-100.00,North,5,1.0,12.0,47,0.00,,,-99.99,,2013-04-17 19:32:00,
2013-04-17 15:42:00,70.0,50.0,-100.00,SW,220,1.0,12.0,49,0.00,,,-99.99,,2013-04-17 19:42:00,
2013-04-17 15:52:00,71.0,50.0,-100.00,NE,39,0.0,12.0,50,0.00,,,-99.99,,2013-04-17 19:52:00,
2013-04-17 16:03:00,70.0,50.0,-100.00,North,355,1.0,12.0,50,0.00,,,-99.99,,2013-04-17 20:03:00,
2013-04-17 16:12:00,70.0,48.0,-100.00,East,90,2.0,12.0,49,0.00,,,-99.99,,2013-04-17 20:12:00,
2013-04-17 16:22:00,71.0,50.0,-100.00,North,355,1.0,12.0,50,0.00,,,-99.99,,2013-04-17 20:22:00,
2013-04-17 16:33:00,71.0,50.0,-100.00,NE,43,3.0,12.0,51,0.00,,,-99.99,,2013-04-17 20:33:00,
2013-04-17 16:42:00,71.0,48.0,-100.00,NE,45,2.0,12.0,47,0.00,,,-99.99,,2013-04-17 20:42:00,
2013-04-17 16:52:00,69.0,48.0,-100.00,NNE,19,2.0,12.0,50,0.00,,,-99.99,,2013-04-17 20:52:00,
2013-04-17 17:03:00,69.0,48.0,-100.00,ENE,57,2.0,12.0,49,0.00,,,-99.99,,2013-04-17 21:03:00,
2013-04-17 17:12:00,69.0,48.0,-100.00,NNE,26,4.0,12.0,51,0.00,,,-99.99,,2013-04-17 21:12:00,
2013-04-17 17:22:00,71.0,50.0,-100.00,NE,39,2.0,12.0,47,0.00,,,-99.99,,2013-04-17 21:22:00,
2013-04-17 17:33:00,70.0,48.0,-100.00,North,11,2.0,12.0,49,0.00,,,-99.99,,2013-04-17 21:33:00,
2013-04-17 17:43:00,71.0,50.0,-100.00,NNE,29,1.0,12.0,49,0.00,,,-99.99,,2013-04-17 21:43:00,
2013-04-17 17:53:00,71.0,50.0,-100.00,NNE,15,2.0,12.0,49,0.00,,,-99.99,,2013-04-17 21:53:00,
2013-04-17 18:02:00,69.0,48.0,-100.00,ENE,59,2.0,12.0,50,0.00,,,-99.99,,2013-04-17 22:02:00,
2013-04-17 18:13:00,70.0,50.0,-100.00,West,261,2.0,12.0,50,0.00,,,-99.99,,2013-04-17 22:13:00,
2013-04-17 18:22:00,71.0,52.0,-100.00,NNE,21,2.0,12.0,51,0.00,,,-99.99,,2013-04-17 22:22:00,
2013-04-17 18:33:00,72.0,54.0,-100.00,ENE,76,1.0,12.0,55,0.00,,,-99.99,,2013-04-17 22:33:00,
2013-04-17 18:42:00,71.0,54.0,-100.00,NE,46,2.0,12.0,54,0.00,,,-99.99,,2013-04-17 22:42:00,
2013-04-17 18:53:00,71.0,52.0,-100.00,NE,42,2.0,12.0,53,0.00,,,-99.99,,2013-04-17 22:53:00,
2013-04-17 19:02:00,71.0,52.0,-100.00,NE,46,2.0,12.0,53,0.00,,,-99.99,,2013-04-17 23:02:00,
2013-04-17 19:12:00,71.0,54.0,-100.00,ENE,74,1.0,12.0,54,0.00,,,-99.99,,2013-04-17 23:12:00,
2013-04-17 19:22:00,71.0,54.0,-100.00,NE,39,1.0,12.0,55,0.00,,,-99.99,,2013-04-17 23:22:00,
2013-04-17 19:32:00,70.0,52.0,-100.00,NE,53,4.0,12.0,55,0.00,,,-99.99,,2013-04-17 23:32:00,
2013-04-17 19:42:00,71.0,54.0,-100.00,NE,48,2.0,12.0,56,0.00,,,-99.99,,2013-04-17 23:42:00,
2013-04-17 19:52:00,70.0,54.0,-100.00,SE,124,1.0,12.0,58,0.00,,,-99.99,,2013-04-17 23:52:00,
2013-04-17 20:02:00,70.0,55.0,-100.00,SW,224,0.0,12.0,63,0.00,,,-99.99,,2013-04-18 00:02:00,
2013-04-17 20:12:00,67.0,55.0,-100.00,NNE,12,0.0,12.0,67,0.00,,,-99.99,,2013-04-18 00:12:00,
2013-04-17 20:22:00,67.0,55.0,-100.00,WSW,240,0.0,12.0,68,0.00,,,-99.99,,2013-04-18 00:22:00,
2013-04-17 20:32:00,66.0,55.0,-100.00,WSW,242,0.0,12.0,71,0.00,,,-99.99,,2013-04-18 00:32:00,
2013-04-17 20:42:00,66.0,55.0,-100.00,NW,321,0.0,12.0,72,0.00,,,-99.99,,2013-04-18 00:42:00,
2013-04-17 20:52:00,65.0,55.0,-100.00,South,176,0.0,12.0,73,0.00,,,-99.99,,2013-04-18 00:52:00,
2013-04-17 21:02:00,64.0,55.0,-100.00,WSW,242,0.0,12.0,75,0.00,,,-99.99,,2013-04-18 01:02:00,
2013-04-17 21:12:00,65.0,55.0,-100.00,SW,214,0.0,12.0,75,0.00,,,-99.99,,2013-04-18 01:12:00,
2013-04-17 21:22:00,63.0,55.0,-100.00,WSW,238,0.0,12.0,76,0.00,,,-99.99,,2013-04-18 01:22:00,
2013-04-17 21:32:00,63.0,55.0,-100.00,SW,228,0.0,12.0,77,0.00,,,-99.99,,2013-04-18 01:32:00,
2013-04-17 21:42:00,63.0,55.0,-100.00,North,354,0.0,12.0,77,0.00,,,-99.99,,2013-04-18 01:42:00,
2013-04-17 21:52:00,63.0,55.0,-100.00,ESE,117,0.0,12.0,78,0.00,,,-99.99,,2013-04-18 01:52:00,
2013-04-17 22:02:00,62.0,55.0,-100.00,SSW,206,0.0,12.0,80,0.00,,,-99.99,,2013-04-18 02:02:00,
2013-04-17 22:12:00,62.0,55.0,-100.00,WNW,299,0.0,12.0,81,0.00,,,-99.99,,2013-04-18 02:12:00,
2013-04-17 22:22:00,62.0,55.0,-100.00,WSW,244,0.0,12.0,82,0.00,,,-99.99,,2013-04-18 02:22:00,
2013-04-17 22:32:00,61.0,55.0,-100.00,NE,40,1.0,12.0,84,0.00,,,-99.99,,2013-04-18 02:32:00,
2013-04-17 22:42:00,61.0,55.0,-100.00,NE,40,1.0,12.0,84,0.00,,,-99.99,,2013-04-18 02:42:00,
2013-04-17 22:52:00,61.0,55.0,-100.00,NE,40,1.0,12.0,84,0.00,,,-99.99,,2013-04-18 02:52:00,
2013-04-17 23:02:00,62.0,55.0,-100.00,WSW,251,0.0,12.0,84,0.00,,,-99.99,,2013-04-18 03:02:00,
2013-04-17 23:12:00,62.0,55.0,-100.00,South,187,0.0,12.0,84,0.00,,,-99.99,,2013-04-18 03:12:00,
2013-04-17 23:22:00,61.0,55.0,-100.00,East,96,0.0,12.0,85,0.00,,,-99.99,,2013-04-18 03:22:00,
2013-04-17 23:33:00,61.0,55.0,-100.00,ENE,76,0.0,12.0,85,0.00,,,-99.99,,2013-04-18 03:33:00,
2013-04-17 23:43:00,61.0,55.0,-100.00,NE,42,0.0,12.0,85,0.00,,,-99.99,,2013-04-18 03:43:00,
2013-04-17 23:53:00,61.0,55.0,-100.00,West,261,0.0,12.0,86,0.00,,,-99.99,,2013-04-18 03:53:00,